Location: Songkhla
(7.2000°N, 100.6000°E)
Time: 21:11:23
(UTC+07:00)

SJ-12 - Pass Details

Date: 16 April 2026
Orbit: 512 x 521 km, 97.8° (Epoch: 20 May)

Event Time Altitude Azimuth Distance (km) Brightness Sun altitude
Rises 18:49:40 0° 174° (S) 2,620 7.1 -6.6°
Reaches altitude 10° 18:51:46 10° 178° (S) 1,734 6.2 -7.1°
Maximum altitude 18:55:28 62° 259° (WSW) 582 4.3 -8.0°
Drops below altitude 10° 18:59:10 10° 340° (NNW) 1,737 6.8 -8.9°
Sets 19:01:16 0° 344° (NNW) 2,624 7.7 -9.4°
